| time (UTC) | temp F | wind direction | speed knots | gust knots | rain 1hr in | rain 24hr in | rain mn in | humidity % | barometer mb |
| 20260507070010 | 63 | 150 | 0.0 | 0.0 | 0.03 | 0.23 | 0.18 | 92 | 1007.5 |
| 20260507064507 | 63 | 150 | 0.0 | 0.0 | 0.07 | 0.22 | 0.17 | 92 | 1008.3 |
| 20260507063003 | 63 | 150 | 0.0 | 0.0 | 0.17 | 0.22 | 0.17 | 92 | 1008.3 |
| 20260507061502 | 63 | 150 | 0.0 | 0.0 | 0.16 | 0.21 | 0.16 | 92 | 1008.6 |
| 20260507060107 | 63 | 150 | 0.0 | 0.0 | 0.15 | 0.20 | 0.15 | 92 | 1008.8 |
| 20260507054638 | 62 | 150 | 0.0 | 0.0 | 0.10 | 0.15 | 0.10 | 92 | 1008.7 |
| 20260507053057 | 61 | 150 | 0.0 | 0.0 | 0.00 | 0.05 | 0.00 | 91 | 1008.8 |
| 20260507051556 | 61 | 150 | 0.0 | 0.0 | 0.00 | 0.05 | 0.00 | 91 | 1008.9 |
| 20260507050058 | 61 | 150 | 0.0 | 0.0 | 0.00 | 0.05 | 0.00 | 90 | 1009.0 |
| 20260507044600 | 61 | 150 | 0.0 | 0.0 | 0.00 | 0.05 | 0.00 | 90 | 1009.0 |
| 20260507043053 | 61 | 150 | 0.0 | 0.0 | 0.00 | 0.05 | 0.00 | 90 | 1009.3 |
| 20260507041559 | 61 | 150 | 0.0 | 0.0 | 0.00 | 0.05 | 0.00 | 89 | 1009.4 |
| 20260507040046 | 62 | 150 | 0.0 | 0.0 | 0.00 | 0.05 | 0.00 | 90 | 1009.3 |
| 20260507034555 | 62 | 150 | 0.0 | 0.0 | 0.00 | 0.05 | 0.05 | 89 | 1008.8 |
| 20260507033046 | 62 | 150 | 0.0 | 0.0 | 0.00 | 0.05 | 0.05 | 89 | 1008.4 |
| 20260507031555 | 62 | 150 | 0.0 | 0.0 | 0.00 | 0.05 | 0.05 | 88 | 1008.5 |
| 20260507030050 | 63 | 150 | 0.0 | 0.0 | 0.00 | 0.05 | 0.05 | 87 | 1008.7 |
| 20260507024543 | 64 | 150 | 0.0 | 0.0 | 0.00 | 0.05 | 0.05 | 87 | 1008.9 |
| 20260507023038 | 64 | 150 | 0.0 | 0.0 | 0.00 | 0.05 | 0.05 | 86 | 1009.1 |
| 20260507021537 | 65 | 150 | 0.0 | 0.0 | 0.00 | 0.05 | 0.05 | 85 | 1009.0 |
| 20260507020036 | 65 | 150 | 0.0 | 0.0 | 0.00 | 0.05 | 0.05 | 84 | 1009.4 |
| 20260507014546 | 66 | 150 | 0.0 | 0.0 | 0.00 | 0.05 | 0.05 | 83 | 1009.2 |
| 20260507013036 | 66 | 150 | 0.0 | 0.0 | 0.00 | 0.05 | 0.05 | 82 | 1009.1 |
| 20260507011535 | 67 | 150 | 0.0 | 0.0 | 0.00 | 0.05 | 0.05 | 81 | 1009.2 |
| 20260507010040 | 68 | 150 | 0.0 | 0.0 | 0.00 | 0.05 | 0.05 | 80 | 1009.0 |
| 20260507004535 | 68 | 146 | 0.0 | 0.9 | 0.00 | 0.05 | 0.05 | 79 | 1009.3 |
| 20260507003035 | 68 | 182 | 0.0 | 0.0 | 0.00 | 0.05 | 0.05 | 79 | 1008.8 |
| 20260507001537 | 68 | 172 | 0.0 | 0.0 | 0.00 | 0.05 | 0.05 | 78 | 1008.7 |
| 20260507000038 | 69 | 173 | 0.0 | 0.0 | 0.00 | 0.05 | 0.05 | 78 | 1008.7 |
| 20260506234533 | 69 | 151 | 0.0 | 0.0 | 0.00 | 0.05 | 0.05 | 77 | 1008.6 |
| 20260506233036 | 69 | 151 | 0.0 | 0.0 | 0.00 | 0.05 | 0.05 | 76 | 1008.5 |
| 20260506231532 | 70 | 160 | 0.0 | 0.0 | 0.00 | 0.05 | 0.05 | 76 | 1008.4 |
| 20260506230031 | 70 | 149 | 0.0 | 0.9 | 0.00 | 0.05 | 0.05 | 75 | 1008.4 |
| 20260506224531 | 70 | 155 | 0.0 | 0.0 | 0.00 | 0.05 | 0.05 | 75 | 1008.5 |
| 20260506223030 | 71 | 194 | 0.0 | 0.9 | 0.00 | 0.05 | 0.05 | 74 | 1008.5 |
| 20260506221528 | 71 | 186 | 0.0 | 1.7 | 0.00 | 0.05 | 0.05 | 74 | 1008.7 |
| 20260506220028 | 70 | 159 | 0.0 | 0.9 | 0.00 | 0.05 | 0.05 | 75 | 1008.7 |
| 20260506214527 | 70 | 177 | 0.0 | 0.9 | 0.00 | 0.05 | 0.05 | 76 | 1008.6 |
| 20260506213027 | 70 | 175 | 0.0 | 0.9 | 0.00 | 0.05 | 0.05 | 75 | 1008.9 |
| 20260506211526 | 70 | 164 | 0.0 | 0.9 | 0.00 | 0.05 | 0.05 | 75 | 1008.8 |
| 20260506210028 | 70 | 182 | 0.0 | 1.7 | 0.00 | 0.05 | 0.05 | 74 | 1008.7 |
| 20260506204526 | 70 | 148 | 0.0 | 1.7 | 0.00 | 0.05 | 0.05 | 75 | 1008.8 |
| 20260506203025 | 70 | 174 | 0.0 | 1.7 | 0.00 | 0.05 | 0.05 | 75 | 1008.7 |
| 20260506201523 | 70 | 155 | 0.0 | 2.6 | 0.00 | 0.05 | 0.05 | 75 | 1009.0 |
| 20260506200023 | 70 | 171 | 0.0 | 2.6 | 0.00 | 0.05 | 0.05 | 75 | 1009.1 |
| 20260506194522 | 70 | 167 | 0.0 | 6.1 | 0.00 | 0.05 | 0.05 | 76 | 1009.1 |
| 20260506193020 | 70 | 114 | 0.0 | 2.6 | 0.00 | 0.05 | 0.05 | 76 | 1008.9 |
| 20260506191520 | 70 | 121 | 0.0 | 2.6 | 0.00 | 0.05 | 0.05 | 76 | 1009.1 |
| 20260506190018 | 70 | 120 | 0.9 | 3.5 | 0.00 | 0.05 | 0.05 | 76 | 1009.6 |
| 20260506184516 | 69 | 182 | 0.0 | 1.7 | 0.00 | 0.05 | 0.05 | 79 | 1009.9 |
| 20260506183016 | 68 | 126 | 0.0 | 1.7 | 0.00 | 0.05 | 0.05 | 81 | 1009.9 |
| 20260506181514 | 67 | 154 | 0.0 | 1.7 | 0.01 | 0.05 | 0.05 | 83 | 1010.2 |
| 20260506180013 | 67 | 115 | 0.0 | 3.5 | 0.02 | 0.05 | 0.05 | 85 | 1010.1 |
| 20260506174513 | 66 | 143 | 0.0 | 2.6 | 0.03 | 0.05 | 0.05 | 87 | 1010.3 |
| 20260506173013 | 65 | 115 | 0.0 | 1.7 | 0.03 | 0.05 | 0.05 | 88 | 1010.2 |
| 20260506171511 | 65 | 111 | 0.0 | 2.6 | 0.03 | 0.04 | 0.04 | 87 | 1010.5 |
| 20260506170008 | 65 | 112 | 0.0 | 2.6 | 0.02 | 0.03 | 0.03 | 86 | 1010.7 |
| 20260506164506 | 65 | 115 | 0.0 | 2.6 | 0.02 | 0.02 | 0.02 | 85 | 1011.2 |
| 20260506163007 | 65 | 134 | 0.0 | 3.5 | 0.02 | 0.02 | 0.02 | 84 | 1011.5 |
| 20260506161504 | 66 | 125 | 0.0 | 1.7 | 0.01 | 0.01 | 0.01 | 83 | 1011.5 |
| 20260506160003 | 67 | 119 | 0.0 | 2.6 | 0.01 | 0.01 | 0.01 | 80 | 1011.8 |
| 20260506154501 | 69 | 119 | 0.0 | 2.6 | 0.00 | 0.00 | 0.00 | 75 | 1011.9 |
| 20260506153112 | 69 | 121 | 0.0 | 1.7 | 0.00 | 0.00 | 0.00 | 74 | 1011.8 |
| 20260506151601 | 69 | 102 | 0.0 | 2.6 | 0.00 | 0.00 | 0.00 | 73 | 1011.7 |
| 20260506144558 | 70 | 144 | 0.0 | 5.2 | 0.00 | 0.00 | 0.00 | 70 | 1011.8 |
| 20260506143107 | 70 | 184 | 0.9 | 7.0 | 0.00 | 0.00 | 0.00 | 70 | 1011.5 |
| 20260506141557 | 70 | 192 | 0.9 | 3.5 | 0.00 | 0.00 | 0.00 | 70 | 1011.7 |
| 20260506140058 | 70 | 205 | 0.9 | 3.5 | 0.00 | 0.00 | 0.00 | 70 | 1011.7 |
| 20260506134555 | 70 | 47 | 0.9 | 3.5 | 0.00 | 0.00 | 0.00 | 70 | 1011.7 |
| 20260506133055 | 69 | 155 | 0.0 | 4.3 | 0.00 | 0.00 | 0.00 | 70 | 1011.7 |
| 20260506131552 | 69 | 88 | 0.9 | 5.2 | 0.00 | 0.00 | 0.00 | 71 | 1011.8 |
| 20260506130050 | 68 | 122 | 0.0 | 4.3 | 0.00 | 0.00 | 0.00 | 72 | 1011.9 |
| 20260506124547 | 68 | 115 | 0.0 | 3.5 | 0.00 | 0.00 | 0.00 | 72 | 1011.9 |
| 20260506123046 | 67 | 74 | 0.0 | 4.3 | 0.00 | 0.00 | 0.00 | 72 | 1012.3 |
| 20260506121546 | 67 | 54 | 0.0 | 2.6 | 0.00 | 0.00 | 0.00 | 73 | 1012.0 |
| 20260506120055 | 66 | 84 | 0.0 | 2.6 | 0.00 | 0.00 | 0.00 | 74 | 1012.0 |
| 20260506114555 | 65 | 130 | 0.0 | 3.5 | 0.00 | 0.00 | 0.00 | 76 | 1011.9 |
| 20260506113044 | 65 | 65 | 0.0 | 2.6 | 0.00 | 0.00 | 0.00 | 76 | 1011.9 |
| 20260506111544 | 64 | 69 | 0.0 | 3.5 | 0.00 | 0.00 | 0.00 | 76 | 1011.8 |
| 20260506110049 | 64 | 89 | 0.0 | 3.5 | 0.00 | 0.00 | 0.00 | 76 | 1011.8 |
| 20260506104543 | 64 | 72 | 0.0 | 2.6 | 0.00 | 0.00 | 0.00 | 76 | 1011.9 |
| 20260506103042 | 64 | 115 | 0.0 | 1.7 | 0.00 | 0.00 | 0.00 | 76 | 1011.9 |
| 20260506101543 | 64 | 69 | 0.0 | 2.6 | 0.00 | 0.00 | 0.00 | 75 | 1011.9 |
| 20260506100045 | 64 | 102 | 0.0 | 3.5 | 0.00 | 0.00 | 0.00 | 75 | 1011.8 |
| 20260506094554 | 64 | 111 | 0.0 | 1.7 | 0.00 | 0.00 | 0.00 | 75 | 1011.7 |
| 20260506093038 | 64 | 119 | 0.0 | 1.7 | 0.00 | 0.00 | 0.00 | 74 | 1011.8 |
| 20260506091538 | 64 | 58 | 0.0 | 2.6 | 0.00 | 0.00 | 0.00 | 74 | 1011.8 |
| 20260506090139 | 64 | 111 | 0.0 | 1.7 | 0.00 | 0.00 | 0.00 | 73 | 1011.8 |
| 20260506084535 | 64 | 128 | 0.0 | 3.5 | 0.00 | 0.00 | 0.00 | 72 | 1011.7 |
| 20260506083034 | 64 | 137 | 0.0 | 2.6 | 0.00 | 0.00 | 0.00 | 72 | 1011.9 |
| 20260506081535 | 64 | 126 | 0.0 | 2.6 | 0.00 | 0.00 | 0.00 | 71 | 1011.9 |
| 20260506073033 | 65 | 125 | 0.0 | 3.5 | 0.00 | 0.00 | 0.00 | 72 | 1012.0 |
| 20260506071533 | 65 | 113 | 0.0 | 2.6 | 0.00 | 0.00 | 0.00 | 72 | 1012.1 |